Total_Precipitation_Accumulation
0.03 0.04 0.09 0.06 0.06 0.08 0.10 0.13 0.14 0.13 0.13 0.11 0.09 0.06 0.05 0.05 0.05 0.04 0.04 0.05 0.07 0.10 0.13 0.17 0.19 0.21 0.23 0.24 0.22 0.21 0.22 0.26 0.37 0.43 0.44 0.45 0.54 0.74 0.91 0.89 0.89 0.64 0.50
0.01 0.02 0.08 0.05 0.05 0.06 0.08 0.12 0.13 0.13 0.13 0.13 0.11 0.08 0.06 0.06 0.05 0.05 0.05 0.06 0.07 0.09 0.11 0.14 0.15 0.15 0.16 0.17 0.16 0.16 0.19 0.29 0.46 0.57 0.62 0.55 0.68 0.86 0.87 0.78 0.90 0.55 0.45
0.01 0.01 0.05 0.05 0.04 0.05 0.07 0.09 0.10 0.10 0.12 0.12 0.11 0.09 0.08 0.07 0.06 0.06 0.06 0.07 0.09 0.10 0.11 0.11 0.10 0.11 0.12 0.13 0.14 0.18 0.22 0.38 0.62 0.82 0.98 0.82 0.55 0.83 0.88 0.77 0.64 0.37 0.40
0.02 0.02 0.03 0.06 0.06 0.05 0.06 0.08 0.09 0.10 0.10 0.11 0.09 0.09 0.09 0.08 0.08 0.09 0.08 0.09 0.11 0.13 0.12 0.10 0.09 0.09 0.10 0.13 0.17 0.23 0.30 0.43 0.66 1.03 1.36 0.88 0.41 0.50 0.61 0.53 0.45 0.34 0.34
0.03 0.04 0.07 0.09 0.07 0.06 0.06 0.08 0.09 0.09 0.10 0.10 0.10 0.10 0.10 0.09 0.10 0.11 0.10 0.11 0.12 0.13 0.11 0.10 0.09 0.09 0.10 0.12 0.17 0.23 0.33 0.48 0.68 0.95 0.92 0.85 0.66 0.47 0.44 0.38 0.37 0.33 0.30
0.05 0.06 0.07 0.10 0.08 0.07 0.06 0.07 0.09 0.10 0.09 0.11 0.11 0.11 0.12 0.11 0.11 0.11 0.11 0.11 0.13 0.13 0.12 0.10 0.08 0.08 0.11 0.12 0.16 0.20 0.30 0.49 0.67 0.64 0.55 0.59 0.55 0.49 0.44 0.44 0.48 0.41 0.31
0.07 0.06 0.07 0.09 0.09 0.08 0.07 0.08 0.09 0.09 0.10 0.10 0.11 0.10 0.11 0.12 0.13 0.13 0.12 0.11 0.13 0.14 0.14 0.10 0.08 0.08 0.09 0.11 0.15 0.21 0.37 0.58 0.68 0.56 0.50 0.60 0.49 0.40 0.50 0.62 0.72 0.60 0.48
0.11 0.07 0.08 0.12 0.13 0.11 0.11 0.12 0.11 0.10 0.11 0.11 0.11 0.10 0.10 0.11 0.13 0.14 0.14 0.13 0.14 0.14 0.13 0.10 0.08 0.09 0.10 0.13 0.17 0.23 0.38 0.52 0.59 0.53 0.48 0.51 0.35 0.36 0.57 0.76 0.87 0.82 0.74
0.21 0.19 0.13 0.13 0.15 0.16 0.16 0.16 0.15 0.13 0.13 0.13 0.13 0.12 0.11 0.11 0.13 0.15 0.19 0.20 0.19 0.18 0.17 0.13 0.10 0.09 0.10 0.14 0.19 0.24 0.37 0.52 0.61 0.61 0.50 0.44 0.33 0.44 0.70 0.85 0.91 0.94 0.91
0.54 0.39 0.23 0.19 0.20 0.17 0.15 0.17 0.19 0.17 0.15 0.15 0.14 0.14 0.14 0.15 0.18 0.21 0.23 0.27 0.29 0.28 0.25 0.21 0.16 0.14 0.15 0.18 0.22 0.30 0.40 0.48 0.56 0.69 0.69 0.48 0.43 0.58 0.76 0.86 1.02 1.07 1.02
0.96 0.79 0.40 0.29 0.26 0.24 0.20 0.20 0.24 0.24 0.23 0.21 0.23 0.24 0.27 0.32 0.39 0.50 0.49 0.53 0.52 0.49 0.46 0.42 0.38 0.35 0.31 0.25 0.30 0.46 0.48 0.50 0.72 0.90 0.66 0.50 0.56 0.77 0.94 1.04 1.11 1.12 1.09
1.12 1.01 0.66 0.52 0.38 0.31 0.28 0.36 0.46 0.45 0.46 0.41 0.50 0.54 0.66 0.82 0.77 0.64 0.77 0.96 0.98 0.98 0.91 0.88 0.86 0.70 0.52 0.48 0.90 1.17 0.74 0.75 0.83 0.71 0.62 0.67 0.89 1.15 1.39 1.31 1.18 1.09 1.01
1.29 1.13 0.86 0.76 0.67 0.53 0.59 0.54 0.61 0.70 0.82 0.70 0.68 0.79 1.07 1.04 0.83 0.79 0.90 1.11 1.32 1.32 1.22 1.42 1.48 1.10 1.03 1.24 1.53 1.47 1.03 1.06 0.97 0.82 0.69 0.90 1.20 1.57 1.84 1.76 1.47 1.24 1.06
1.60 1.41 1.18 0.97 0.84 0.79 0.77 0.72 0.73 0.74 0.90 0.88 1.00 1.04 1.20 1.37 1.28 1.24 1.32 1.34 1.46 1.58 1.81 1.86 1.91 1.71 1.65 1.59 1.71 1.54 1.33 1.31 1.14 1.23 1.29 1.44 1.47 1.67 2.08 2.09 1.80 1.55 1.36
2.06 1.92 1.73 1.40 1.29 1.19 1.19 1.17 1.04 1.05 1.14 1.23 1.35 1.35 1.35 1.54 1.53 1.59 1.59 1.63 1.54 1.65 1.86 2.06 2.01 2.09 2.16 1.98 1.71 1.57 1.58 1.58 1.61 1.59 1.57 1.81 1.71 1.69 2.08 2.20 2.01 1.81 1.67
2.62 2.62 2.46 2.14 2.05 1.90 1.69 1.54 1.49 1.41 1.49 1.51 1.56 1.53 1.60 1.78 1.90 1.83 1.67 1.69 1.63 1.68 1.79 1.99 2.07 2.37 2.32 2.23 1.80 1.62 1.66 1.74 1.74 1.77 1.76 2.02 1.91 1.68 1.86 2.07 2.18 2.09 1.92
2.79 2.95 3.00 2.90 2.86 2.68 2.41 2.08 1.88 1.86 1.77 1.85 1.90 1.85 1.93 1.99 2.08 2.00 1.82 1.68 1.74 1.80 1.88 1.92 2.05 2.33 2.27 2.16 1.89 1.76 1.67 1.57 1.48 1.53 1.60 1.76 1.71 1.63 1.70 1.83 2.05 2.10 2.06
2.97 3.14 3.38 3.46 3.43 3.20 2.91 2.61 2.36 2.22 2.13 2.09 2.05 2.00 1.96 2.06 2.08 2.04 1.83 1.65 1.84 1.84 1.89 2.02 2.11 2.24 2.33 2.36 2.08 1.82 1.69 1.57 1.42 1.42 1.38 1.41 1.50 1.27 1.47 1.70 1.84 1.94 2.19
3.25 3.63 4.03 4.15 4.06 3.70 3.25 2.95 2.83 2.67 2.43 2.24 2.18 2.02 1.98 2.03 1.95 2.01 1.78 1.67 1.85 1.99 1.97 1.82 2.13 2.34 2.31 2.33 2.01 1.79 1.54 1.38 1.25 1.21 1.24 1.17 1.21 1.18 1.24 1.34 1.46 1.58 2.02
3.74 4.25 4.34 4.32 4.55 4.30 3.92 3.60 3.27 2.93 2.67 2.42 2.25 2.02 1.81 1.71 1.77 1.97 1.70 1.70 1.93 2.00 1.93 2.00 2.19 2.33 2.20 2.25 2.01 1.60 1.33 1.06 1.02 0.96 0.89 0.91 0.86 0.78 0.89 1.12 1.42 1.32 1.68
3.70 4.08 4.43 4.50 4.41 4.25 3.98 3.53 3.09 2.68 2.51 2.28 2.06 1.86 1.76 1.74 1.85 2.11 1.86 1.89 1.91 1.85 1.82 1.99 2.13 2.04 1.91 2.31 2.28 1.59 1.07 0.82 0.72 0.57 0.61 0.62 0.56 0.60 0.82 1.11 1.30 1.37 1.30
3.10 3.44 3.72 3.82 3.46 3.08 2.91 2.81 2.65 2.56 2.25 2.07 2.05 2.03 1.87 1.83 1.84 1.89 1.93 1.84 1.84 1.81 1.65 1.73 1.95 1.84 1.54 1.95 2.13 1.95 1.35 0.91 0.66 0.44 0.46 0.46 0.51 0.64 0.74 0.81 1.05 1.27 1.25
2.62 2.70 2.75 2.73 2.56 2.44 2.47 2.53 2.58 2.62 2.38 2.29 2.29 2.25 2.01 1.92 1.87 1.92 1.80 1.64 1.61 1.57 1.47 1.46 1.64 1.71 1.51 1.54 1.87 2.13 1.68 1.10 0.85 0.57 0.55 0.56 0.68 0.81 0.81 0.86 0.95 1.07 1.16
1.99 2.17 2.44 2.44 2.35 2.39 2.58 2.57 2.52 2.51 2.52 2.58 2.70 2.64 2.47 2.23 2.05 1.91 1.70 1.50 1.35 1.29 1.27 1.19 1.35 1.46 1.49 1.27 1.39 1.51 1.47 1.39 1.29 0.90 0.67 0.67 0.81 0.88 0.91 0.95 0.97 1.03 1.15
1.62 1.79 2.08 2.38 2.51 2.60 2.74 2.76 2.83 2.78 2.75 2.69 2.69 2.58 2.38 2.23 2.05 1.81 1.64 1.49 1.36 1.25 1.18 1.14 1.20 1.19 1.21 1.11 1.16 1.22 1.28 1.28 1.23 1.15 0.89 0.85 0.85 0.70 0.71 0.78 0.91 1.18 1.29
1.73 1.77 1.88 2.16 2.44 2.60 2.66 2.66 2.64 2.56 2.49 2.36 2.22 1.99 1.80 1.69 1.60 1.50 1.39 1.26 1.19 1.18 1.18 1.13 1.09 1.08 1.08 1.09 1.09 1.09 1.19 1.27 1.31 1.33 1.15 1.02 0.92 0.77 0.74 0.75 0.82 1.01 1.12